Location: Cartignies
(50.0929°N, 3.8447°E)
Time: 14:04:33
(UTC+00:00)

Cosmos 1633 Rocket - Pass Details

Date: 12 January 2026
Orbit: 600 x 616 km, 82.5° (Epoch: 15 February)

Event Time Altitude Azimuth Distance (km) Brightness Sun altitude
Rises 16:38:25 0° 358° (N) 2,865 6.2 -5.2°
Reaches altitude 10° 16:40:54 10° 10° (N) 1,956 5.3 -5.6°
Maximum altitude 16:44:39 28° 70° (ENE) 1,135 3.9 -6.1°
Drops below altitude 10° 16:48:23 10° 130° (SE) 1,941 5.4 -6.7°
Sets 16:50:50 0° 142° (SE) 2,839 6.3 -7.0°
